RH
26 29 29 28 28 23 30 47 43 41 64 77 77 81 87 95 96 92 91 90 87 91 96 91 92 94 86 85 87 82 74 67 67 68 68 71 73 74 75 74 75 72 65 62 64 64 63 65 66 69 72 74 73 70 70 65 60 61 64 67 70 73 78 82 81 77 72 73 75 71 66 66 63 61 63 66 71 75 78 79 77 76 78 82 82 81
25 32 32 26 28 24 21 28 23 27 54 66 73 82 85 93 98 90 90 92 87 90 95 91 93 94 86 89 92 86 80 70 64 63 65 68 68 69 69 68 69 65 61 63 65 64 65 65 66 68 69 71 68 65 69 66 60 60 64 66 69 72 72 75 80 75 71 74 77 73 67 66 65 63 64 65 68 71 73 75 74 73 77 80 79 78
27 31 31 25 26 22 20 23 18 34 62 66 70 83 90 94 96 93 90 91 91 94 97 93 94 95 89 91 94 90 88 80 67 62 61 64 66 66 66 65 65 64 64 65 65 66 66 65 66 67 67 67 62 60 64 65 62 62 64 66 69 72 68 70 77 73 71 77 81 80 73 69 70 69 69 69 71 71 70 71 70 71 75 78 77 76
32 30 26 25 24 19 20 20 16 30 53 70 80 82 91 96 91 94 96 93 92 92 93 92 93 97 94 92 95 93 91 84 74 67 62 60 63 63 63 63 63 63 63 62 63 64 66 66 66 65 64 66 65 65 65 65 66 65 64 65 67 70 67 65 71 73 75 80 82 83 80 76 77 78 77 77 75 73 72 72 70 69 72 75 76 78
32 28 22 24 23 20 21 19 18 18 22 52 80 81 89 96 85 88 96 93 92 90 89 91 96 100 97 95 95 94 92 86 78 74 67 60 60 61 61 61 61 60 59 59 61 62 65 66 63 62 63 64 66 66 64 63 65 65 64 63 63 68 66 61 68 77 80 82 82 82 83 82 83 84 82 79 75 73 73 72 71 70 71 72 73 77
31 25 20 23 23 21 22 20 20 19 15 30 56 70 81 88 87 89 91 89 96 98 91 89 96 99 98 97 95 95 97 91 82 79 72 62 59 60 60 59 58 57 57 57 58 60 62 62 59 60 62 63 64 63 62 62 63 66 65 61 59 63 65 62 67 78 82 82 82 81 82 82 83 82 75 69 67 67 69 70 71 71 71 71 71 74
29 23 21 23 24 21 21 23 20 18 21 20 30 56 74 80 88 90 84 86 96 99 91 87 95 99 98 97 93 95 98 93 88 86 76 62 59 60 58 57 56 55 55 55 56 58 59 59 58 59 60 59 59 60 62 64 65 69 68 60 56 57 62 62 65 74 79 80 82 81 80 79 79 76 68 63 63 64 66 67 68 70 71 72 71 72
24 21 22 23 24 23 21 24 21 17 21 19 26 56 76 82 90 86 80 88 94 94 92 91 93 97 98 96 92 93 97 94 90 90 81 65 58 58 56 55 55 53 54 53 54 57 57 57 56 55 55 54 55 58 62 62 61 67 69 63 57 55 58 61 62 67 72 75 79 80 80 77 77 76 71 66 62 61 62 63 64 68 71 72 71 70
22 21 24 23 22 25 25 24 21 16 15 22 40 63 74 78 83 79 79 90 91 91 98 97 92 94 96 96 93 93 97 97 92 88 84 72 61 57 55 54 53 52 52 52 52 54 55 55 53 52 51 50 53 56 58 57 56 60 67 67 62 58 58 59 60 61 64 69 74 79 80 78 77 79 77 73 68 61 59 59 60 64 68 70 69 68
20 17 19 21 23 24 24 23 18 12 13 30 57 68 66 71 74 72 80 91 89 89 98 97 90 92 96 98 98 98 98 98 94 87 82 76 67 59 54 51 51 50 49 50 51 51 51 51 50 50 49 49 50 53 55 56 56 58 65 68 66 62 57 56 57 58 59 63 69 75 79 79 79 80 79 79 75 66 58 55 56 59 64 68 69 68
18 16 18 19 20 20 21 20 13 15 27 45 64 68 66 78 82 78 84 89 90 89 88 88 87 86 90 95 94 94 93 90 92 92 86 84 77 64 56 50 48 48 48 49 50 50 49 48 49 49 48 48 49 52 56 56 56 57 61 65 65 63 59 55 54 55 56 57 61 69 74 77 79 80 79 78 76 68 58 53 54 57 61 66 69 69
18 19 23 20 16 14 17 17 12 25 47 58 67 69 74 88 91 89 91 90 93 87 77 82 85 79 84 91 86 84 85 83 88 92 88 88 84 70 59 52 48 47 47 49 50 52 53 53 53 51 49 49 49 52 54 54 54 56 58 61 62 63 63 60 55 53 52 51 54 62 68 74 78 79 78 76 74 68 59 54 54 57 60 64 68 67
22 21 24 19 15 14 15 17 16 31 54 64 70 74 83 94 93 96 96 91 93 80 67 78 83 80 87 90 84 81 80 81 85 84 79 85 86 76 69 63 54 49 47 49 50 53 56 56 53 51 49 49 49 49 51 51 52 53 56 59 60 60 61 62 59 54 52 49 50 58 65 70 76 78 77 77 75 71 66 60 55 55 59 62 64 64
25 20 20 17 18 16 14 18 20 32 55 68 70 72 85 94 93 98 93 86 89 75 66 77 80 83 87 84 85 82 76 77 79 76 76 81 82 78 78 76 67 56 48 47 50 52 55 53 50 49 48 47 47 47 48 50 50 51 55 56 57 58 58 58 57 53 51 48 48 55 63 69 74 76 75 77 76 72 72 68 59 55 57 60 61 62
28 25 24 19 19 17 13 17 20 34 57 67 60 59 72 78 80 90 89 84 87 81 75 77 79 89 87 78 81 79 72 74 75 76 80 81 79 78 80 79 74 65 53 46 48 51 52 51 49 47 46 45 45 46 47 48 49 50 53 54 55 56 55 53 51 47 46 46 45 50 60 66 71 73 74 76 77 72 72 73 68 61 58 58 61 63
28 29 28 20 18 17 15 15 21 42 63 60 50 57 67 64 63 72 74 73 82 90 92 85 86 96 89 79 82 80 77 80 81 83 86 85 82 79 78 77 75 72 64 51 44 47 50 51 51 49 47 46 45 46 47 47 47 48 50 52 53 53 52 48 45 41 38 41 42 45 52 58 63 69 73 75 76 73 71 74 73 70 65 59 60 64
26 28 26 20 21 20 17 16 20 40 57 52 53 63 57 47 53 61 63 68 78 88 93 92 95 96 88 85 88 87 87 89 90 91 89 88 84 78 76 75 73 74 72 60 45 41 45 48 50 50 48 47 47 47 47 45 45 45 47 50 52 54 51 45 41 39 37 37 38 40 45 50 54 63 70 73 73 71 70 74 74 74 72 64 59 63
24 26 25 21 21 19 16 17 18 25 39 49 60 57 37 31 44 56 69 81 86 90 93 95 98 96 94 95 93 93 95 93 93 93 90 89 84 79 78 72 69 72 73 68 55 44 42 43 45 49 49 48 47 46 46 45 45 46 47 49 51 53 48 38 36 38 38 37 36 37 40 43 47 56 66 71 71 69 67 69 72 74 73 67 61 63
22 25 30 25 19 19 17 19 19 16 22 38 48 38 29 38 45 47 63 79 83 93 100 97 97 97 95 93 93 98 100 96 94 94 95 94 85 79 79 73 68 70 73 72 64 54 46 42 43 45 47 48 47 47 46 46 47 47 48 49 51 53 48 38 35 37 38 38 37 37 37 39 42 49 61 67 69 69 64 62 66 71 73 71 67 67
25 25 30 25 15 15 21 25 24 19 16 23 29 23 25 41 45 40 54 70 76 90 100 97 98 100 95 91 91 95 96 95 96 97 96 96 89 80 78 77 73 71 75 76 70 61 51 45 45 45 47 48 47 48 48 47 48 47 48 49 50 55 55 46 39 36 37 38 38 38 38 38 39 43 52 59 61 63 60 57 59 62 67 71 70 69
29 26 28 30 21 17 25 28 24 21 18 21 25 22 20 27 33 35 44 60 77 93 98 94 94 97 93 91 91 92 91 90 90 93 95 95 93 87 84 87 82 76 79 81 78 73 61 51 50 50 51 52 49 49 50 49 49 47 48 49 50 54 56 51 43 38 36 37 37 38 38 38 38 40 45 49 52 53 54 53 54 55 60 64 65 66
28 31 32 33 23 16 23 26 23 20 19 22 23 21 21 22 30 38 38 50 76 89 88 87 91 95 91 86 88 89 88 87 87 92 97 98 97 94 94 95 91 85 84 84 85 86 76 64 59 56 55 56 55 54 54 53 52 49 48 49 51 54 56 56 53 49 46 42 39 37 38 39 40 40 42 44 45 46 46 47 48 51 55 57 59 60
35 45 43 38 32 23 20 21 24 22 19 21 21 21 25 25 32 42 39 52 76 82 81 86 90 92 88 83 86 87 86 88 90 92 97 100 99 97 97 97 97 94 90 86 87 88 83 75 69 64 59 58 59 58 58 58 55 52 51 51 52 54 56 58 59 57 57 55 51 45 41 41 41 41 41 41 42 43 42 42 43 47 50 52 56 59
40 50 50 50 49 38 28 27 29 24 18 18 17 19 23 25 31 39 46 65 81 82 86 89 86 87 89 87 88 88 90 92 92 93 98 100 100 99 99 99 99 98 93 88 86 83 81 79 77 73 67 62 62 62 62 62 59 56 54 52 52 54 57 59 60 60 60 59 59 57 52 45 41 41 40 38 38 39 40 39 39 41 43 46 51 55
34 47 50 45 37 29 26 27 26 26 26 23 19 20 29 41 45 44 57 75 80 81 81 75 79 91 92 90 90 87 90 92 92 97 100 99 100 100 100 100 99 99 98 95 91 85 82 83 83 82 77 71 67 64 62 61 60 60 56 52 53 54 56 59 60 60 60 59 60 62 61 54 46 42 40 39 38 37 38 38 38 38 39 41 43 46
40 49 52 50 47 43 40 34 26 29 30 26 23 24 35 51 52 49 63 70 66 74 76 70 85 101 95 93 95 89 89 92 93 98 100 99 99 97 98 100 100 100 100 99 98 93 88 86 85 85 87 86 82 74 67 63 63 62 57 55 57 59 59 60 61 61 60 60 61 62 64 64 58 50 44 41 40 39 40 40 39 37 35 35 37 39
53 51 52 62 62 55 56 53 45 39 29 20 20 25 38 54 55 53 61 61 61 73 81 82 92 101 99 98 97 91 90 92 92 95 97 98 97 97 99 101 100 100 100 99 98 95 92 92 91 89 91 94 91 83 77 74 72 68 64 62 62 62 62 61 62 64 64 64 64 64 64 66 68 65 59 53 51 49 47 46 44 41 37 34 33 34
56 45 43 51 43 37 46 50 45 39 26 18 18 21 35 54 59 53 50 55 65 68 73 88 96 96 98 98 93 91 90 89 91 93 94 95 97 98 100 100 100 100 100 99 98 96 96 98 98 95 95 96 91 83 82 83 80 77 78 78 75 72 70 68 70 73 74 76 76 76 74 74 77 79 76 72 69 65 60 57 52 46 41 39 37 34
57 46 41 41 30 27 34 33 30 27 19 19 27 31 39 50 52 53 56 64 65 54 61 87 97 93 93 90 87 87 87 87 90 90 90 92 94 96 99 100 100 101 97 93 95 99 100 100 100 98 98 98 91 87 90 88 85 86 89 89 87 84 80 78 83 87 86 85 85 85 87 87 88 89 86 80 77 73 69 67 66 59 49 43 41 39
53 52 50 46 34 26 28 29 27 25 18 19 29 40 54 63 63 66 76 81 75 69 75 90 94 89 86 82 81 82 83 86 88 87 88 88 90 94 98 99 100 100 94 86 91 101 101 99 101 100 100 98 90 90 94 91 89 91 91 90 91 90 86 86 94 99 96 89 84 86 93 96 93 93 91 85 80 75 70 70 78 81 73 59 50 45
41 47 54 57 46 30 27 31 31 29 24 18 19 27 42 63 76 81 85 88 89 92 91 89 94 94 85 77 79 81 83 86 86 85 86 85 89 94 96 98 100 100 95 87 90 100 101 99 101 99 100 99 93 91 93 91 92 94 93 96 96 92 89 90 94 98 96 91 85 85 94 100 96 92 93 92 86 81 77 77 83 93 93 82 69 61
49 54 60 62 54 34 25 31 35 34 30 24 21 19 23 45 68 76 81 85 89 94 95 92 97 97 85 78 81 82 83 85 85 85 84 84 89 94 94 96 98 99 99 94 91 96 99 100 100 99 99 100 98 98 97 96 98 98 97 100 100 97 93 91 92 94 93 91 88 87 92 99 99 95 94 94 89 84 83 80 79 89 97 94 85 77
64 67 60 52 46 34 28 34 40 43 37 30 28 21 19 39 62 71 76 81 80 83 91 92 89 85 81 80 83 85 84 85 85 84 84 84 87 91 92 92 93 95 99 99 97 98 100 100 99 98 97 95 96 97 98 98 98 97 98 99 98 99 97 94 96 97 95 94 95 94 95 98 100 98 95 92 86 83 82 79 78 87 95 93 88 83
74 80 74 62 47 37 40 45 50 52 40 27 28 27 23 36 61 74 78 79 77 74 78 82 79 78 80 80 83 85 84 84 85 83 82 83 85 89 90 88 89 91 94 98 100 99 99 97 94 91 87 84 86 88 90 91 91 92 96 99 99 100 99 97 97 96 96 97 99 99 99 100 100 100 99 96 92 88 85 84 86 92 92 88 84 83
72 76 81 78 55 41 50 52 47 46 39 30 33 35 33 41 60 72 70 67 69 71 74 80 80 78 80 79 79 81 80 81 83 81 82 82 81 83 85 86 86 85 86 91 95 97 97 95 92 86 77 70 69 70 72 76 78 82 89 94 97 97 95 94 92 92 93 95 94 94 96 98 99 98 98 100 100 98 94 92 95 97 94 89 86 82
58 65 79 80 56 42 46 44 38 37 37 37 38 35 37 46 55 67 71 63 61 67 74 80 80 78 78 77 76 77 78 80 81 81 83 82 78 76 79 81 81 79 79 82 86 91 93 90 85 76 66 58 53 49 49 53 56 60 66 75 84 91 92 89 87 88 92 94 95 93 91 91 90 87 88 94 98 99 98 98 99 99 96 93 91 88
57 59 68 68 59 55 50 44 47 44 32 33 37 33 34 35 37 55 73 69 61 64 71 75 77 77 76 76 77 77 77 80 84 85 83 81 77 75 75 75 73 71 73 75 75 77 76 72 67 62 57 55 51 46 44 43 40 38 40 47 58 71 81 83 83 85 85 85 89 87 82 81 84 84 86 90 92 92 92 93 93 94 95 94 92 92
53 49 54 57 64 73 63 47 48 44 34 39 43 37 35 34 33 46 66 71 65 62 65 70 75 76 74 75 78 77 77 86 91 88 83 80 77 74 73 72 68 65 69 70 68 66 64 60 60 60 59 57 54 53 51 47 43 38 35 36 38 42 47 50 55 64 67 71 78 78 69 68 79 89 91 89 88 87 87 88 87 85 85 85 86 86
56 60 68 66 65 71 61 48 48 45 43 52 53 41 36 37 38 47 66 78 70 59 61 68 71 73 74 75 77 77 80 91 95 87 81 81 77 72 69 68 66 66 67 66 63 63 62 60 58 59 59 53 52 57 55 46 40 34 31 33 34 32 31 30 32 41 49 57 65 65 58 57 68 82 86 82 82 82 84 88 86 80 77 76 76 78
64 69 71 62 64 75 65 51 55 55 48 53 57 47 36 33 41 60 79 83 68 55 60 68 69 71 73 73 76 77 78 86 90 83 79 79 76 71 67 64 63 62 59 59 60 62 60 56 51 49 47 43 47 55 53 41 33 27 23 25 26 25 24 24 25 31 37 44 47 48 47 48 54 66 74 73 70 69 74 83 84 78 77 77 74 71
67 72 69 56 56 68 57 38 47 55 48 49 55 46 33 29 43 69 83 74 60 56 62 66 67 71 71 71 75 74 70 75 80 78 76 77 73 70 66 62 60 58 53 54 57 58 56 52 44 38 35 32 35 42 40 32 27 23 20 19 19 20 20 21 22 24 28 33 38 40 42 41 39 44 51 55 54 51 58 74 83 83 81 82 83 81
58 60 63 51 37 47 55 51 54 52 44 48 51 40 30 29 38 56 62 53 51 58 63 64 66 69 70 69 70 67 65 71 76 74 72 71 67 66 65 62 60 56 52 51 52 50 49 48 41 33 29 27 27 28 26 22 19 15 13 12 12 15 20 25 28 28 27 26 27 30 34 37 38 37 35 36 39 43 51 67 82 88 88 88 91 94
50 47 53 49 34 40 57 62 56 46 44 54 50 34 31 36 38 45 47 45 52 61 62 65 67 67 67 65 62 62 67 72 71 68 66 63 60 61 62 60 58 53 48 48 47 43 40 39 35 31 27 25 23 20 17 15 13 12 11 11 11 11 14 18 23 28 29 29 27 28 28 28 31 34 34 32 32 38 51 66 77 83 88 91 90 89
51 52 58 60 50 44 47 48 46 46 53 61 53 40 42 46 45 45 45 47 58 63 62 65 67 63 62 60 58 61 68 69 64 60 58 56 53 56 59 58 55 51 48 46 45 42 38 35 33 30 27 23 20 17 15 14 13 14 13 12 13 12 11 11 12 15 18 22 26 31 36 36 32 30 31 31 29 32 44 63 75 79 81 83 82 79
45 50 55 59 58 55 51 49 53 55 55 56 53 50 51 49 46 46 43 47 61 67 64 63 62 58 57 57 58 63 65 64 60 55 52 51 50 53 57 57 54 50 48 47 45 42 40 37 33 29 25 22 19 17 16 15 15 16 16 17 18 17 15 14 13 11 11 12 13 18 28 39 46 48 45 41 35 31 35 48 63 71 74 75 75 74
46 49 49 48 53 58 55 53 61 64 58 52 49 49 49 47 46 46 43 46 58 65 64 61 59 57 57 56 58 63 64 62 58 54 51 53 55 57 57 56 52 49 47 47 44 42 40 36 31 27 23 20 18 17 15 15 14 15 16 18 20 21 20 18 17 16 15 13 11 11 12 19 33 50 60 62 57 51 47 47 49 53 59 63 65 65
54 54 57 54 53 57 58 61 68 70 64 56 48 44 45 45 44 43 43 47 54 59 62 63 59 58 59 59 57 57 60 62 60 59 60 63 64 63 60 56 53 50 48 45 42 40 38 34 29 26 21 18 16 15 14 14 14 16 17 19 21 22 23 23 22 20 19 17 16 15 14 13 17 28 45 62 73 74 71 69 64 56 52 52 53 53
54 51 57 60 58 53 53 62 68 64 60 57 53 49 46 44 43 42 43 45 49 53 57 61 61 59 61 63 62 59 61 64 63 64 68 68 65 63 60 57 54 50 47 44 42 40 37 34 31 28 24 21 18 15 14 14 15 17 19 21 22 23 25 27 28 27 26 24 23 21 20 20 19 20 29 49 71 81 81 81 80 72 63 59 56 53
56 52 54 64 69 62 58 61 61 58 57 57 55 55 51 46 44 43 43 45 48 51 54 58 61 61 59 61 61 60 61 65 66 65 66 65 61 59 57 54 51 50 47 45 43 40 38 35 33 30 28 26 22 19 17 18 19 21 22 22 22 23 26 32 39 40 38 35 32 30 29 28 27 28 34 48 69 83 86 86 86 83 78 73 68 65
66 65 65 71 73 69 67 64 61 64 69 67 62 59 58 52 46 42 43 46 47 50 52 54 57 59 58 57 58 56 55 60 65 64 61 58 55 52 51 50 51 52 51 46 42 40 37 34 32 31 30 30 28 25 23 22 23 25 25 24 24 25 28 36 45 49 50 49 48 47 45 42 40 41 48 62 77 86 89 90 92 92 89 83 77 75
72 70 73 73 70 68 68 66 65 67 69 66 62 59 59 57 52 48 49 50 49 49 50 51 54 56 57 56 55 51 49 53 57 56 51 48 47 46 46 49 51 51 49 44 41 37 34 32 32 32 32 32 31 28 26 25 27 28 29 29 29 27 27 34 43 50 53 57 62 65 65 63 60 56 60 71 82 89 93 95 95 95 93 89 82 78
Wind_Speed
8 3 2 4 5 5 6 7 5 3 5 6 4 3 5 3 2 3 4 6 7 4 2 4 5 8 11 8 8 12 17 20 20 19 20 22 24 24 24 24 25 26 26 23 22 22 20 19 18 16 16 15 15 16 16 16 15 16 16 15 15 14 13 13 12 13 14 12 10 12 13 13 13 13 12 11 11 10 10 10 9 9 10 9 9 9
7 4 5 6 7 7 6 6 5 3 4 6 3 4 4 2 2 2 5 8 5 2 3 4 5 8 10 7 6 8 10 14 19 20 21 23 24 25 26 25 26 27 25 24 25 24 22 21 20 18 17 16 17 17 17 17 16 16 16 16 15 14 14 14 12 12 13 11 8 9 12 12 11 11 11 11 10 10 10 10 9 9 9 9 9 8
4 4 7 7 6 4 2 4 5 3 4 5 3 4 4 3 3 3 7 9 3 1 3 6 6 7 7 6 6 5 5 8 15 20 24 26 26 26 27 27 28 28 27 27 27 27 26 24 22 20 18 17 18 17 17 17 16 16 17 16 16 14 14 14 12 12 11 9 7 8 10 11 10 10 10 9 9 9 9 9 9 9 9 8 7 7
3 5 6 6 6 5 2 3 5 4 3 2 4 4 3 6 5 1 6 8 2 1 4 7 5 5 6 4 3 3 2 5 10 14 22 28 30 30 31 30 30 30 28 28 28 28 28 26 24 22 20 19 19 18 17 17 17 17 17 17 16 14 14 15 13 11 10 8 8 8 9 10 9 9 9 9 9 9 9 9 9 9 9 8 7 7
4 5 3 7 6 5 4 3 4 4 1 2 4 5 5 7 5 4 7 6 3 1 4 8 4 3 7 8 5 3 1 3 6 9 17 26 31 32 32 32 32 31 31 30 29 29 29 28 26 24 22 21 21 20 17 17 17 17 17 17 16 14 13 14 14 12 10 9 9 10 11 12 11 11 11 11 11 10 9 9 9 9 8 8 7 7
5 5 5 7 3 4 5 3 4 5 3 2 4 6 8 9 7 10 12 8 3 2 5 8 4 2 7 11 9 5 2 4 4 6 14 24 27 27 29 31 31 31 31 31 31 31 30 29 27 25 24 23 22 20 17 16 16 17 17 16 16 15 13 14 14 13 11 10 10 11 12 13 13 13 12 11 10 10 9 9 9 9 8 8 8 8
2 3 6 6 4 5 4 3 4 5 5 1 5 7 8 9 11 14 14 8 3 2 5 5 1 1 5 9 9 7 6 6 4 5 13 22 24 25 29 31 31 31 31 32 32 32 32 30 29 27 26 24 23 21 19 17 17 17 17 16 16 15 14 14 15 14 13 12 11 11 12 12 12 11 9 9 9 9 9 9 9 9 8 8 8 8
2 2 4 5 5 5 4 4 4 6 7 2 5 8 12 10 12 14 11 5 2 3 4 4 0 2 2 6 8 8 8 8 7 6 9 19 25 27 30 31 31 32 32 33 33 33 34 32 30 28 26 24 22 21 20 18 16 17 17 15 14 14 14 14 15 15 14 13 12 12 12 12 10 8 7 8 9 9 9 9 8 8 8 8 8 8
2 4 4 5 4 3 5 5 6 9 5 3 1 7 10 9 10 9 5 2 2 4 3 5 3 1 1 3 7 8 8 9 11 9 8 17 25 28 30 31 32 33 34 35 35 35 35 34 31 28 25 24 23 21 20 18 16 16 17 15 13 13 14 15 15 15 14 13 13 13 12 11 9 8 8 8 7 8 8 7 7 7 7 7 7 8
3 6 7 7 5 4 6 6 8 9 4 1 7 11 9 9 8 6 4 3 3 2 3 8 6 2 1 3 6 9 9 10 11 8 8 15 22 26 29 31 32 33 35 36 37 37 36 34 31 28 26 24 23 22 21 19 17 16 16 16 14 13 14 15 15 15 14 14 14 15 14 11 9 8 8 8 7 7 7 7 7 7 6 6 6 7
4 4 4 4 6 8 7 7 8 9 8 8 10 11 9 6 5 5 3 3 3 2 3 9 9 2 0 4 7 8 6 8 9 5 6 11 17 22 26 29 31 33 35 37 38 38 37 35 32 30 27 25 24 23 22 21 18 16 16 15 14 13 13 14 15 15 15 15 15 16 15 12 10 8 8 8 8 8 8 7 7 6 6 6 6 6
4 1 2 5 11 8 4 2 3 8 12 9 6 6 7 3 3 4 3 4 3 3 3 8 9 2 1 4 6 6 4 8 10 7 8 11 16 22 25 27 30 32 35 37 38 38 37 36 34 32 30 28 27 25 24 22 19 17 16 15 15 15 14 14 14 15 16 16 15 16 15 13 10 9 8 8 8 8 8 8 7 7 7 7 7 7
3 3 3 4 10 10 7 3 2 5 7 6 5 6 6 2 2 3 2 2 1 4 2 8 9 2 3 3 3 6 7 11 14 14 15 15 19 24 24 24 26 30 34 37 38 38 37 37 36 35 33 31 29 27 25 23 20 18 17 16 16 16 16 15 15 15 16 17 16 15 15 14 12 10 9 8 8 9 8 8 8 8 8 8 7 6
2 5 3 1 5 9 9 5 3 4 4 6 7 6 5 3 2 2 1 1 2 5 2 7 8 2 3 1 1 4 7 15 20 20 19 20 22 24 23 21 21 25 30 34 37 38 38 38 37 36 34 32 30 27 26 24 22 19 18 17 16 16 17 16 16 17 18 18 17 17 16 14 13 12 11 9 8 9 9 8 8 8 8 7 6 5
2 3 4 4 3 7 10 7 8 7 6 6 6 5 6 5 4 4 4 2 2 2 1 6 5 2 1 1 4 7 8 16 22 21 19 21 22 22 22 20 18 20 25 29 34 37 38 39 38 37 35 33 31 29 27 25 23 21 19 17 16 16 17 17 17 18 19 19 18 18 18 16 15 14 12 10 9 10 10 9 9 8 8 8 7 5
2 4 7 4 2 7 9 7 9 10 6 4 3 5 4 5 5 3 3 4 4 2 2 3 2 2 2 3 5 2 7 13 19 22 22 21 19 19 19 19 18 17 19 23 29 34 37 38 38 38 37 34 33 30 29 26 24 21 19 18 16 16 17 18 18 18 19 19 19 19 19 18 17 15 14 12 11 11 11 10 9 8 7 7 7 7
1 4 7 4 1 6 9 8 10 10 7 2 2 4 3 3 6 5 3 3 3 3 1 1 1 2 1 3 4 5 9 11 13 17 21 21 18 17 17 18 17 16 15 19 24 29 34 37 38 38 38 36 35 33 30 28 24 21 19 18 17 16 17 18 18 18 19 19 19 19 19 19 18 16 15 14 13 12 11 10 10 9 8 8 8 8
2 3 6 1 2 5 7 10 6 5 8 6 3 6 2 3 3 4 3 2 3 1 1 1 1 2 0 1 1 6 10 11 10 11 16 20 19 18 16 17 18 16 13 16 20 25 29 33 36 38 38 37 36 33 31 28 25 22 19 18 17 16 17 19 19 19 19 19 19 19 19 19 18 17 15 14 13 13 12 11 10 9 9 9 9 9
3 1 7 3 3 3 3 9 4 2 3 5 6 6 4 2 1 1 3 2 2 1 2 2 1 2 2 2 2 6 9 11 11 11 11 14 18 19 17 17 19 17 15 15 18 22 26 30 34 37 38 37 36 35 33 30 27 24 20 18 17 16 16 18 19 19 18 18 18 18 18 18 18 18 17 15 15 14 13 13 12 10 10 10 10 10
2 1 4 4 2 2 3 4 4 1 3 3 6 6 2 2 4 2 2 3 4 2 2 0 1 2 3 2 2 6 7 9 11 11 9 11 16 21 20 20 21 21 18 17 18 21 24 27 31 34 36 37 36 35 35 33 29 25 22 20 19 18 17 17 19 19 19 18 18 17 18 18 18 18 18 17 16 15 15 13 13 12 11 11 11 11
1 2 3 5 3 1 1 1 5 7 4 4 5 4 1 2 3 2 2 1 4 4 3 2 0 3 2 1 2 4 6 7 9 10 9 10 14 18 19 19 22 23 21 19 18 18 21 25 28 32 34 35 36 36 36 34 30 27 24 23 22 20 17 16 17 17 18 18 18 18 18 18 19 19 19 18 17 16 15 14 13 12 12 12 12 12
1 1 2 3 3 1 4 4 5 6 6 6 6 6 5 3 4 4 1 1 2 3 3 4 2 4 1 1 1 4 6 6 9 10 9 10 13 15 15 16 19 22 23 21 18 16 17 21 23 27 31 34 36 37 36 35 32 29 27 25 24 23 20 18 16 16 16 16 18 18 18 19 20 20 20 19 19 18 17 16 14 13 12 12 12 12
2 3 1 2 1 3 6 5 1 3 3 5 4 5 5 4 5 6 4 3 2 2 1 3 1 3 2 1 1 6 8 10 13 14 12 11 12 15 16 15 16 18 20 21 22 20 18 18 20 22 27 30 33 35 35 34 33 32 30 28 27 25 23 21 19 18 17 17 17 18 19 20 21 21 21 21 20 19 18 17 15 14 14 13 12 12
2 3 2 2 4 4 6 6 4 2 4 5 2 2 4 3 3 5 5 4 4 3 2 3 0 3 1 2 5 9 11 12 14 14 14 12 11 13 17 18 18 18 18 20 23 25 24 21 20 20 23 26 28 30 31 32 33 33 32 29 26 25 25 24 23 21 20 19 18 18 19 21 22 22 22 22 21 20 19 18 17 16 16 14 14 13
2 2 3 2 3 4 4 5 5 5 3 2 1 2 1 4 7 5 3 4 3 4 4 4 2 3 2 4 6 9 10 10 10 12 13 12 10 12 15 18 19 18 16 16 18 23 27 26 22 19 20 22 24 25 27 29 30 32 31 29 27 25 25 25 25 25 23 22 21 20 19 19 21 23 23 22 22 21 20 19 18 17 17 16 16 15
2 2 2 3 3 3 3 2 1 3 3 1 0 1 0 5 8 6 3 4 2 4 5 5 3 3 6 7 7 7 7 7 8 11 13 13 12 13 14 15 15 15 15 15 16 19 24 26 24 21 19 19 19 21 23 25 26 27 28 28 29 28 27 27 27 27 26 25 24 23 21 19 19 21 22 22 22 22 22 21 20 20 19 18 18 17
3 3 2 5 5 4 5 6 4 1 1 1 0 1 1 3 5 6 5 3 4 4 3 3 5 9 11 10 9 9 9 8 8 10 12 12 13 13 13 12 12 13 16 17 17 17 19 20 21 22 21 19 19 20 20 20 21 22 23 24 26 28 29 28 27 27 27 27 27 26 24 22 20 19 20 21 21 21 22 23 22 22 21 20 20 20
4 4 3 4 4 4 6 6 6 2 2 1 1 1 1 2 5 7 4 5 7 7 2 5 9 13 14 13 12 11 10 9 9 9 11 12 12 13 12 12 13 13 14 16 17 17 19 18 18 21 23 22 23 23 21 20 19 19 20 21 22 24 26 26 27 28 27 26 26 26 26 25 24 22 20 20 21 22 22 23 23 23 23 22 21 21
5 2 4 1 2 1 0 5 5 1 2 2 4 3 1 1 5 6 3 4 7 5 5 9 12 12 13 14 12 10 11 12 13 13 13 13 13 14 14 13 13 15 15 15 16 17 18 19 19 19 19 20 23 24 22 20 19 18 19 20 20 22 24 24 25 26 25 23 24 26 26 27 26 24 22 21 21 22 22 22 23 23 23 23 22 21
4 2 4 2 2 5 7 7 7 5 4 5 7 6 5 2 3 6 4 3 4 2 4 13 13 7 7 11 11 12 15 17 17 16 15 15 15 16 17 15 14 16 18 16 15 15 16 17 17 16 17 16 19 22 19 18 19 18 18 19 19 21 23 24 23 23 22 22 24 26 27 27 25 24 23 23 22 22 21 22 22 23 23 22 22 22
3 1 4 2 3 5 8 10 9 7 5 7 8 9 8 6 5 5 5 5 6 5 7 13 11 5 6 12 15 17 19 19 18 18 16 17 19 20 20 18 16 18 21 19 17 17 18 17 16 14 16 17 16 17 16 15 14 13 13 13 13 15 18 20 21 20 19 21 24 25 26 26 25 25 24 24 24 23 21 22 23 24 23 23 22 22
3 1 3 4 4 3 6 9 10 7 5 7 9 10 8 5 2 1 1 3 5 9 11 11 8 5 9 15 17 19 21 19 18 19 20 19 21 23 23 21 18 18 19 21 21 21 20 20 18 16 16 18 18 15 13 12 10 7 6 6 5 6 9 12 14 14 14 16 19 21 22 21 20 22 24 25 25 25 23 23 24 24 25 24 23 23
2 2 2 3 3 3 6 8 7 6 7 5 5 6 5 3 0 0 2 1 7 12 10 6 5 7 12 16 16 15 18 18 19 21 23 22 23 25 25 23 21 19 18 20 23 24 22 20 20 19 17 18 18 17 15 13 11 9 7 6 4 3 3 4 6 8 10 10 10 13 15 13 10 12 16 19 21 23 23 22 22 24 27 27 26 24
3 4 1 1 3 2 8 8 5 5 4 2 5 3 4 4 1 2 1 2 4 5 3 3 6 11 14 15 15 15 17 20 22 24 26 27 27 26 26 25 24 23 20 20 23 25 24 22 22 20 18 17 16 15 14 12 11 10 9 8 8 7 6 5 5 6 6 7 6 8 10 10 9 8 8 10 13 15 17 17 18 21 25 26 25 25
3 4 1 1 3 1 4 6 5 1 3 5 5 4 3 5 4 6 5 4 3 2 3 9 10 13 15 16 19 22 22 22 22 22 23 26 29 29 28 27 26 25 23 21 23 24 23 21 21 19 18 17 15 13 13 12 12 12 11 9 9 9 9 8 8 8 7 5 4 4 4 5 5 5 5 6 7 8 11 13 14 17 19 20 21 22
3 3 2 1 1 1 2 5 2 4 6 5 6 6 4 2 3 6 5 4 5 3 5 12 11 13 18 20 22 24 24 23 21 20 23 25 27 29 29 28 26 24 23 23 22 22 21 19 19 18 17 17 15 14 14 13 12 13 12 11 10 10 10 9 9 10 9 9 9 8 7 6 4 2 1 3 4 6 8 9 9 10 12 13 15 17
5 3 2 2 1 2 3 1 2 3 4 5 5 4 2 2 3 2 2 3 6 3 7 12 12 15 20 23 23 24 25 22 16 14 20 24 26 28 28 27 26 24 23 23 22 21 21 19 19 19 17 17 17 15 14 14 12 12 13 12 11 10 10 10 11 10 9 8 9 9 9 8 7 7 5 3 1 2 3 4 4 5 5 7 8 10
5 2 3 3 1 2 4 1 3 3 2 3 5 5 4 4 4 4 3 3 5 1 11 15 14 17 21 23 24 26 23 14 7 7 17 24 26 29 28 26 25 24 24 24 23 22 21 19 19 18 16 16 16 15 13 12 10 10 11 12 12 10 10 10 11 11 9 8 8 8 8 7 7 6 6 6 6 5 4 3 2 3 4 5 7 8
6 4 4 5 2 2 5 3 2 1 3 5 6 8 11 10 3 4 3 4 4 5 14 17 18 21 25 26 27 26 16 7 5 9 18 25 27 29 29 28 26 25 24 24 23 22 21 20 18 17 15 14 14 13 11 9 8 7 8 9 9 8 8 9 9 9 9 9 8 7 7 7 6 5 5 6 6 7 7 7 6 5 5 5 6 7
6 5 4 5 2 2 4 2 3 3 3 4 5 10 16 12 2 6 3 5 5 9 15 18 21 25 29 30 29 20 8 5 10 15 22 27 28 28 28 28 27 26 24 23 23 21 20 18 16 15 13 11 11 10 8 6 5 5 5 5 5 5 6 6 6 7 8 8 7 6 5 5 5 5 4 4 5 5 6 6 6 6 6 7 7 7
4 3 3 4 2 2 3 2 1 2 2 4 9 16 16 9 3 5 2 6 6 12 17 20 22 26 30 32 27 14 5 9 21 26 27 28 29 28 28 27 25 24 23 22 21 20 19 17 14 13 11 9 8 7 5 3 3 3 3 3 3 3 4 4 4 3 4 4 4 4 4 3 3 4 4 3 3 3 3 4 4 4 4 5 6 5
2 2 2 2 2 2 2 2 1 2 1 5 14 15 8 3 2 2 3 4 9 16 20 23 25 28 30 29 24 17 16 22 30 31 29 29 29 29 28 26 25 23 22 21 20 18 17 16 13 11 10 8 6 5 2 1 1 2 2 2 2 2 2 1 1 0 0 1 1 2 2 2 1 1 2 2 2 1 2 2 2 1 0 1 1 1
1 1 1 1 1 1 2 3 2 2 2 11 15 8 4 2 4 5 3 2 12 19 23 25 27 31 31 28 23 23 27 32 33 32 31 30 28 27 27 26 25 24 23 22 20 17 15 14 12 10 9 8 6 4 2 1 2 2 2 3 3 3 3 2 2 2 3 3 3 2 3 3 3 2 2 1 1 2 3 3 4 4 3 3 3 3
1 2 0 2 2 2 2 1 1 3 6 13 11 3 3 6 6 6 4 4 13 19 24 27 27 29 32 30 29 30 34 37 36 34 33 30 27 26 25 23 23 23 22 20 19 16 13 11 10 9 7 6 4 3 2 2 2 2 3 3 3 3 4 4 4 5 5 5 5 5 5 5 5 4 4 4 3 4 4 5 5 6 6 5 5 6
2 2 2 1 1 2 2 4 3 5 10 12 9 7 8 7 4 5 5 8 15 19 24 28 28 28 30 31 32 34 37 39 38 36 36 34 29 25 23 22 22 21 20 18 17 15 11 9 7 5 3 2 2 1 2 2 3 3 3 3 3 4 4 5 5 6 7 7 7 7 7 6 6 5 5 5 5 5 6 7 7 7 7 7 6 7
2 1 2 1 1 1 0 1 4 9 14 15 11 10 10 8 5 4 4 9 15 18 23 28 30 29 30 32 34 36 38 38 38 37 36 33 28 24 25 26 25 22 20 18 16 13 10 7 4 2 1 1 2 3 4 4 5 5 4 4 4 4 5 5 5 6 6 7 8 9 9 9 8 6 5 5 5 4 5 6 7 8 8 8 8 8
3 2 2 1 2 1 1 4 6 10 16 18 14 10 10 10 7 4 2 5 11 15 21 27 30 29 29 30 33 38 40 39 39 38 35 30 26 26 28 28 26 22 19 16 14 11 9 6 3 1 0 2 3 4 5 6 7 7 7 7 7 7 7 7 6 6 6 6 6 7 8 9 9 9 8 6 4 4 4 5 6 7 7 7 8 8
3 4 2 1 2 1 2 4 3 8 13 17 16 14 13 12 8 5 3 2 5 9 15 21 25 27 27 25 27 31 35 38 39 38 34 31 30 31 30 26 23 19 16 14 11 8 5 1 1 3 4 5 5 6 7 7 8 8 8 8 9 9 8 8 7 7 6 6 6 6 6 7 8 9 9 8 6 4 4 4 5 7 7 6 6 6
3 4 1 1 2 2 2 2 2 3 7 13 16 16 14 11 8 7 7 6 6 7 10 15 19 21 22 20 20 22 27 33 36 35 33 34 34 31 27 22 18 17 15 13 9 6 2 2 5 6 7 7 7 7 8 8 8 9 9 9 9 9 8 7 6 6 6 6 7 6 6 5 6 6 8 7 6 5 5 5 6 6 6 6 6 6
3 1 1 3 3 2 3 2 1 1 0 7 13 15 14 11 6 7 9 9 9 9 9 12 15 18 20 20 21 23 26 30 33 33 34 36 34 30 26 21 19 19 17 13 9 5 2 4 6 7 7 6 7 7 8 8 9 9 10 10 10 10 8 7 6 6 6 7 7 7 7 5 4 4 5 6 6 5 6 7 7 6 6 6 5 6
3 1 0 3 2 1 2 1 3 3 3 4 9 12 12 11 8 8 10 10 8 7 7 9 11 14 18 20 23 25 26 28 31 34 34 33 30 26 23 22 22 21 18 13 8 4 4 5 5 5 5 6 6 6 7 8 9 10 11 12 12 11 10 9 8 7 7 7 7 7 7 6 5 4 3 4 5 6 6 7 8 7 7 6 6 6
Wind_Direction
171 166 195 194 208 192 177 181 172 155 137 134 122 144 173 154 113 120 120 140 148 141 161 163 144 146 158 153 127 143 165 173 175 177 182 185 186 189 193 198 202 206 207 206 208 210 208 206 207 207 205 202 198 194 193 194 192 188 187 185 181 177 177 181 173 164 165 165 166 172 176 176 170 168 169 170 173 175 175 176 176 172 173 176 181 181
158 175 224 211 206 197 184 176 146 93 115 137 150 162 157 134 113 92 118 140 148 138 180 177 145 155 163 144 129 145 155 172 180 181 184 188 189 191 195 199 203 207 209 211 213 215 214 211 209 208 205 200 195 192 194 195 193 190 191 190 187 183 181 184 179 169 168 168 164 169 176 176 168 163 165 166 168 171 174 177 179 178 176 173 172 172
143 217 237 214 200 189 145 122 127 119 136 149 163 157 151 140 112 83 122 133 131 39 161 179 164 159 164 136 127 148 142 165 182 186 188 189 190 192 195 199 204 207 211 214 215 216 217 215 211 208 205 199 192 190 191 193 194 196 196 194 194 191 183 183 180 168 164 164 162 164 171 173 169 163 161 163 167 171 170 171 175 180 182 177 166 162
165 239 235 186 166 158 106 90 121 109 100 145 159 152 161 163 146 134 145 133 106 5 161 174 164 144 157 138 101 109 126 171 184 195 195 192 193 196 198 201 204 206 208 212 214 215 216 214 212 210 206 201 195 191 190 191 194 198 200 199 198 195 187 184 179 164 160 164 165 163 167 171 169 164 163 166 171 173 171 171 175 179 183 183 174 168
208 247 175 135 151 162 130 119 133 125 133 239 181 162 160 167 152 108 131 123 89 99 160 162 158 162 165 166 172 146 143 216 205 208 204 198 198 198 199 202 205 206 207 210 211 212 212 212 213 212 209 204 199 196 195 195 195 197 202 203 202 200 192 187 179 166 165 170 168 166 168 172 170 167 171 175 175 176 175 175 178 180 181 181 179 179
252 244 148 117 136 155 133 154 176 160 163 280 229 197 171 159 129 113 128 131 127 177 183 172 176 202 170 172 182 169 171 232 224 224 213 204 201 199 199 203 206 208 210 212 213 212 211 213 213 214 213 209 205 202 201 203 200 197 200 202 203 202 197 189 180 172 174 174 172 173 174 174 173 173 176 175 173 173 171 173 177 180 180 179 179 181
265 208 144 126 134 136 146 207 219 165 132 243 237 190 157 141 128 135 147 150 156 176 182 187 195 136 169 179 182 173 185 214 226 237 220 207 202 200 202 204 206 207 209 211 214 213 212 213 213 213 214 212 209 205 204 207 206 200 199 200 200 199 197 192 183 179 181 182 183 184 180 180 182 179 172 167 165 164 164 169 174 176 176 177 179 181
168 135 118 120 121 120 160 219 226 159 130 246 243 161 148 141 140 153 158 157 134 105 150 200 192 72 176 186 178 175 188 210 222 235 223 207 202 202 205 207 207 208 208 209 210 212 212 213 212 212 213 212 209 207 205 206 206 200 197 197 198 197 197 196 190 187 188 190 193 195 189 186 186 177 165 161 161 161 164 168 171 173 172 175 178 181
160 154 169 152 138 148 192 217 199 163 149 264 261 127 140 130 131 148 136 109 107 101 159 206 182 83 275 179 165 180 196 208 214 220 216 204 202 203 205 208 209 209 210 210 211 212 213 214 214 212 210 210 209 208 205 204 203 198 195 195 197 198 198 200 199 195 194 195 198 201 196 187 178 169 166 167 165 166 169 170 173 175 174 177 180 182
229 195 192 156 149 192 215 215 183 168 177 155 96 90 93 86 89 99 81 70 72 71 190 197 185 152 245 185 171 193 209 208 207 211 208 201 201 202 204 207 209 208 209 211 212 214 215 216 215 211 209 210 209 208 206 206 204 198 196 196 197 197 198 202 204 202 201 200 201 203 199 189 177 172 174 179 180 178 175 175 178 180 181 184 186 187
262 228 200 155 187 205 204 203 185 165 149 119 98 89 78 67 68 68 54 67 73 319 227 186 181 153 216 207 190 199 206 193 192 192 190 189 190 195 200 204 206 206 207 209 210 212 215 215 214 211 210 210 211 210 208 207 207 202 199 198 198 198 200 202 205 206 206 205 203 202 200 195 187 183 187 190 192 192 185 179 181 182 185 190 194 197
317 205 196 213 212 198 155 172 171 150 142 114 101 117 96 46 25 44 7 33 87 266 249 170 167 139 250 226 209 206 178 171 182 182 181 174 171 181 190 198 202 203 205 206 206 208 209 209 211 211 211 212 212 212 209 208 208 205 201 200 199 200 203 207 208 208 209 208 206 204 202 198 195 196 200 200 203 204 196 185 184 187 189 194 198 203
325 218 222 224 211 184 142 98 84 147 154 113 116 132 102 58 17 48 344 1 150 265 274 156 157 162 247 236 212 204 183 178 186 188 182 167 165 176 180 186 193 198 202 204 203 204 204 205 208 211 212 213 214 212 210 209 208 206 203 202 202 202 204 210 213 212 213 213 211 209 207 201 200 204 205 208 215 213 206 198 193 191 193 198 201 203
310 272 269 174 212 188 160 135 131 171 174 136 142 142 112 112 98 92 287 331 248 279 312 147 157 225 259 223 225 235 206 187 189 189 178 166 170 175 170 170 180 192 199 202 202 202 203 206 209 211 212 213 214 213 212 211 209 207 205 203 204 205 206 210 215 215 216 216 214 212 211 208 206 208 208 214 223 219 213 207 201 198 198 203 207 203
155 266 233 182 205 185 172 172 162 153 158 168 163 139 139 154 145 162 191 185 196 257 63 139 163 222 218 263 279 257 215 183 181 180 167 164 172 171 166 166 168 180 194 201 203 203 204 208 210 212 213 214 214 213 213 213 211 209 208 206 207 208 207 210 216 218 217 216 215 214 214 215 214 212 213 219 226 224 216 211 209 207 202 203 207 204
142 247 246 244 206 165 174 183 149 135 156 201 147 113 154 182 154 142 163 157 151 133 114 162 197 233 202 287 306 230 164 153 156 159 155 157 166 166 168 171 167 172 187 197 203 205 206 208 210 212 214 216 216 215 215 215 212 210 209 209 210 211 211 211 215 219 218 217 217 216 217 220 219 216 216 221 226 224 218 215 215 215 213 206 203 205
97 267 275 309 251 186 186 178 157 153 160 149 119 159 201 165 129 115 109 97 101 118 196 207 288 309 267 306 350 94 126 134 140 151 154 157 166 172 175 178 177 176 180 189 199 205 209 210 211 213 215 217 216 216 217 217 215 212 211 212 213 214 214 213 216 219 218 217 219 219 219 221 222 218 218 222 225 225 223 221 218 217 217 210 203 204
135 276 292 284 207 232 181 151 147 156 145 131 172 190 168 79 86 102 110 61 57 116 264 304 284 286 261 283 37 110 132 149 153 159 162 166 176 185 189 188 189 187 184 191 197 203 210 213 214 216 216 217 218 218 220 220 218 215 215 217 218 218 215 212 214 218 219 219 219 219 219 220 221 220 220 222 226 230 231 227 224 220 217 213 208 206
114 293 294 244 202 285 106 118 96 25 116 144 165 157 123 126 169 103 121 134 106 126 279 311 318 260 194 196 180 148 150 158 159 160 163 171 181 190 200 203 202 201 197 200 203 205 210 215 218 218 217 217 218 219 221 222 220 218 218 220 223 225 221 215 214 217 219 221 220 220 221 222 223 222 222 222 225 231 234 231 228 225 222 219 215 214
103 101 287 268 237 318 30 94 146 159 27 60 127 133 103 138 162 154 136 149 138 148 231 261 350 262 215 220 202 166 159 154 155 159 161 167 177 188 201 207 209 210 204 203 207 207 208 213 218 220 219 219 219 220 222 222 221 220 220 221 224 227 226 221 217 216 218 220 221 221 222 223 223 223 224 224 226 230 234 234 231 227 226 226 224 224
66 92 256 290 328 106 134 157 176 167 133 106 129 152 145 77 125 131 90 88 123 144 179 144 254 260 230 262 242 151 143 153 156 154 154 163 174 183 192 196 202 209 206 201 202 204 207 211 215 218 219 220 221 221 222 222 221 221 222 223 225 226 226 221 218 219 219 220 221 222 223 223 224 224 224 226 227 230 233 234 233 229 227 229 230 231
103 120 216 298 4 128 228 238 191 180 163 145 155 173 167 130 123 127 136 303 106 129 164 151 194 261 267 305 259 131 129 145 139 128 129 147 165 175 181 183 191 201 204 202 198 195 202 208 212 215 217 219 220 221 222 222 221 221 222 224 227 228 228 226 222 222 224 223 223 223 224 224 225 226 226 227 229 231 233 234 234 231 229 230 233 236
160 104 85 278 238 210 260 278 205 197 170 127 141 165 151 131 122 134 178 207 111 92 108 111 116 280 287 323 112 120 120 128 132 133 133 140 155 165 173 178 181 189 196 201 200 195 196 203 208 212 215 217 219 220 221 221 220 221 223 225 229 231 232 232 230 229 229 230 229 228 227 227 227 228 229 230 231 233 235 236 235 235 234 235 238 241
107 74 50 307 300 310 307 323 2 33 90 92 61 70 121 147 132 138 167 159 133 152 136 86 44 269 266 88 115 123 124 133 142 146 143 139 143 153 166 177 179 181 187 194 200 200 199 197 198 204 210 213 215 217 219 220 221 222 223 225 229 234 236 237 238 237 236 236 236 236 234 231 228 228 231 233 234 235 237 238 238 239 239 241 243 246
26 49 70 53 8 3 353 355 360 355 26 72 325 341 83 119 105 107 112 79 111 182 150 130 204 246 128 112 127 130 130 138 142 136 133 132 133 146 162 172 173 171 175 183 192 198 200 197 193 196 203 205 208 212 215 219 222 224 225 227 230 235 236 237 240 242 242 242 242 241 239 236 232 230 230 233 235 236 238 240 240 241 242 243 245 247
57 78 103 110 129 154 166 177 266 309 316 323 312 326 108 123 120 126 113 86 142 187 144 142 191 180 139 138 146 145 137 138 134 125 124 127 135 151 159 161 158 153 158 172 183 191 198 200 197 196 198 196 196 201 207 213 216 220 223 226 229 233 236 237 238 240 242 244 245 244 244 243 240 236 234 234 235 237 239 242 243 244 246 246 247 249
104 65 104 129 137 173 193 218 246 258 242 260 303 84 120 133 117 109 113 143 173 159 157 204 170 151 156 160 160 158 151 147 144 129 120 122 134 148 149 143 142 140 148 163 178 189 196 199 200 202 204 201 196 196 200 201 204 209 213 217 223 229 234 236 237 239 241 245 247 247 248 248 247 244 240 238 239 239 240 242 244 245 247 249 250 250
107 24 356 115 125 176 201 245 269 250 185 223 15 47 126 141 110 106 142 191 154 136 199 222 168 157 168 171 165 164 158 151 152 141 127 126 132 137 134 129 130 133 140 156 170 181 183 179 181 193 203 208 207 204 203 200 199 202 205 209 215 222 228 232 236 238 240 245 249 249 249 248 247 245 243 240 239 239 240 241 242 243 244 246 248 250
116 17 326 40 70 90 351 310 315 63 117 60 43 34 359 186 141 130 163 183 144 151 207 184 167 167 171 167 159 158 159 153 152 149 137 129 128 131 128 119 117 123 131 148 163 169 169 164 160 165 177 192 202 204 202 203 206 207 208 212 216 222 226 229 233 235 235 239 246 250 251 248 244 243 243 242 239 238 238 240 243 244 244 242 242 245
109 8 317 305 23 19 11 357 5 41 59 48 40 32 24 34 129 119 111 98 90 88 161 152 152 154 151 151 149 154 158 151 145 142 135 129 129 133 130 118 114 123 131 145 158 156 156 158 152 145 141 156 188 201 200 200 206 210 215 221 226 230 232 232 233 235 231 230 238 246 249 249 245 244 245 247 245 243 241 242 244 246 246 244 242 241
67 17 308 1 42 357 356 3 2 15 60 65 44 26 28 43 61 81 107 106 76 71 118 131 132 126 134 140 142 148 151 146 141 140 136 135 138 139 134 126 124 131 138 151 155 142 137 139 140 140 134 138 165 189 193 194 202 210 216 220 226 232 235 234 235 237 236 236 240 244 247 248 247 245 246 248 249 248 245 244 245 245 247 247 245 243
48 45 330 39 56 326 343 4 349 348 46 54 31 13 8 18 42 76 152 150 127 124 125 129 141 162 153 143 140 144 148 148 147 145 142 142 142 140 136 129 127 129 136 147 151 143 135 128 124 128 128 126 133 145 152 160 170 180 189 197 208 219 228 233 233 234 235 238 241 242 243 247 247 246 247 247 248 248 246 246 248 251 251 249 248 247
73 87 21 56 72 302 326 350 340 2 36 16 347 350 337 316 260 120 335 17 139 139 140 158 173 155 148 146 144 146 151 152 154 151 148 146 143 140 137 131 126 125 128 135 140 140 136 126 118 117 115 111 111 111 113 122 128 126 127 129 123 128 163 203 205 197 199 203 203 205 213 218 216 226 239 243 243 244 244 246 249 252 251 248 246 246
74 94 77 72 107 277 311 335 3 37 44 281 271 270 246 245 181 120 77 95 136 149 152 141 135 138 146 150 146 148 155 158 157 156 153 151 147 141 137 134 130 128 128 127 128 129 128 123 116 112 108 103 102 105 110 116 120 115 108 105 102 100 99 104 114 129 158 177 163 153 168 176 171 177 204 226 234 236 238 243 247 246 245 244 243 244
66 77 84 31 94 147 319 7 51 55 253 251 283 303 228 203 148 107 82 54 22 332 129 124 131 141 142 141 143 148 154 155 153 153 153 152 150 144 138 136 136 134 131 127 124 124 124 122 118 111 106 103 102 108 114 114 117 117 112 108 104 100 95 94 96 97 104 113 99 100 130 156 165 172 184 201 219 225 226 233 240 241 241 241 241 242
105 103 115 49 47 127 40 38 92 234 265 289 320 349 30 43 59 72 58 6 343 329 142 133 132 134 131 135 144 148 149 146 141 146 151 151 149 146 143 142 142 141 138 134 131 129 128 128 125 119 114 110 109 108 104 101 103 106 105 104 103 100 96 95 95 96 95 90 82 78 75 68 62 67 171 218 224 223 222 229 237 244 249 250 249 249
106 127 106 57 23 132 109 30 292 301 329 338 337 349 24 345 334 79 121 292 316 313 150 137 130 133 133 137 143 143 141 135 127 137 150 150 147 146 145 145 146 144 141 139 137 135 135 133 129 125 121 119 117 113 106 102 97 94 93 93 92 93 95 94 92 92 90 83 78 76 70 61 57 59 65 76 124 203 220 237 258 271 276 278 276 272
75 101 132 117 69 88 105 78 340 360 320 272 280 286 305 309 261 177 135 308 313 147 149 144 137 138 139 140 142 142 139 133 125 148 156 153 151 148 146 147 148 146 144 143 141 140 139 137 133 131 130 127 122 116 112 109 105 99 96 92 88 87 90 90 90 91 92 89 84 82 82 81 79 82 89 92 84 72 63 50 16 337 318 306 303 303
38 32 91 101 50 67 116 147 192 193 242 254 259 286 325 336 280 159 85 318 286 157 153 152 144 144 147 146 147 147 146 148 164 166 162 158 155 152 151 150 149 148 146 145 145 143 142 140 137 135 135 131 124 118 115 111 109 105 99 93 89 88 90 92 93 95 96 98 98 97 99 102 105 105 97 88 82 74 62 55 47 31 9 346 333 327
15 8 51 72 63 107 126 170 197 201 264 276 271 300 328 341 19 114 69 278 221 157 160 159 151 152 152 151 154 157 158 167 162 162 164 163 159 157 155 153 152 151 149 148 149 147 144 142 139 136 135 130 124 123 121 111 99 89 82 77 69 68 80 88 92 96 102 108 111 111 108 105 109 112 100 80 73 71 63 53 42 32 30 26 14 358
7 4 55 94 101 92 104 150 224 270 274 281 301 314 330 350 66 110 216 239 170 147 161 161 155 156 155 156 161 155 114 148 159 159 163 165 162 160 158 156 155 153 151 150 151 150 148 146 142 137 134 128 124 127 126 107 80 57 49 44 34 42 60 70 75 88 109 124 131 132 123 107 93 93 97 89 69 57 61 62 48 31 31 37 32 21
27 5 22 75 72 48 103 125 317 281 251 321 321 321 340 32 178 215 246 213 152 150 160 159 157 159 157 159 159 140 125 147 157 157 160 166 164 161 161 161 160 158 156 154 154 154 154 153 152 147 142 137 136 140 144 133 358 357 360 344 344 6 27 47 65 63 113 158 175 181 179 174 140 77 80 90 96 103 116 126 137 150 335 28 71 94
116 94 350 276 184 116 65 50 50 190 285 345 342 337 32 28 265 268 305 192 162 159 160 158 159 162 160 155 148 141 141 150 154 156 159 164 164 164 165 167 165 164 163 161 160 162 161 159 160 158 155 153 154 162 179 230 283 294 303 306 309 316 314 301 292 286 283 283 285 280 273 265 257 258 262 247 201 195 184 181 194 206 218 227 231 237
143 131 197 251 198 108 74 53 193 227 310 347 355 352 354 337 301 295 305 195 167 162 163 159 156 162 163 156 149 149 151 152 155 159 161 163 165 165 167 172 173 170 169 167 166 168 170 169 166 162 159 159 161 172 197 231 261 270 278 286 292 297 298 294 292 289 284 283 283 281 284 288 285 278 272 260 247 235 221 214 218 222 227 234 242 250
256 208 168 187 190 147 184 222 258 327 353 7 16 9 357 350 327 311 277 196 170 164 166 161 155 158 161 156 150 151 155 158 162 166 166 166 171 176 180 186 185 179 175 173 171 172 175 175 167 158 156 161 173 211 245 261 269 272 275 276 277 280 281 283 285 286 285 284 282 280 280 283 285 289 290 283 273 260 245 238 237 239 244 251 257 261
282 229 158 162 275 247 124 359 1 13 18 22 27 27 20 14 9 344 281 201 180 172 171 167 163 159 155 152 151 154 159 163 165 168 169 170 177 186 189 189 188 186 184 181 177 176 178 178 176 177 191 245 278 288 294 297 297 297 295 290 288 282 278 279 281 282 284 285 284 281 277 274 273 275 281 289 291 286 276 265 260 257 260 267 273 278
334 32 92 45 19 77 36 356 18 37 30 24 26 34 32 25 20 11 309 207 190 184 178 175 173 170 165 164 162 161 163 167 168 169 172 176 179 182 183 184 187 188 188 186 183 181 181 179 172 170 301 314 308 307 308 306 306 309 308 304 301 297 294 296 295 294 295 292 290 287 281 277 274 270 269 275 284 292 296 293 288 283 281 283 287 290
335 12 44 61 41 87 254 297 11 60 48 38 36 31 26 26 31 41 62 144 179 187 185 183 183 182 178 175 173 169 169 173 176 177 178 177 176 175 177 180 184 186 190 192 190 186 185 175 26 5 349 335 322 313 308 305 306 309 310 310 308 304 303 304 304 306 309 307 307 307 301 291 282 275 271 272 276 283 282 284 293 298 300 303 305 305
331 352 37 121 28 3 286 305 359 50 41 42 44 39 32 31 42 63 81 108 131 145 165 182 192 194 193 196 198 192 183 181 183 183 180 176 174 173 173 177 187 196 200 198 194 195 215 349 349 343 337 327 317 310 307 307 310 312 314 314 313 311 309 307 306 309 314 319 323 327 327 318 300 283 271 267 269 276 275 277 291 305 315 323 327 328
17 352 151 94 53 333 273 289 317 186 59 35 41 43 40 39 58 85 88 93 106 120 142 167 186 200 209 217 217 207 194 186 185 184 179 175 175 176 179 188 200 206 205 203 202 210 275 331 335 336 331 319 310 306 306 312 319 323 325 323 318 314 309 303 305 311 319 329 336 338 340 338 325 296 272 260 257 259 265 273 283 295 308 319 326 330
41 33 92 107 119 246 254 164 97 113 119 60 43 40 38 42 63 83 80 77 82 94 123 150 168 185 197 203 205 204 199 188 180 179 178 178 180 187 195 200 202 203 207 213 219 240 297 315 328 348 354 347 339 332 329 333 336 336 336 335 330 324 313 302 300 306 314 326 337 342 345 348 344 332 296 264 256 256 260 265 269 275 286 297 307 318